Home > Weather > Kilgore > Past weeks

Flag for U.S.A. Weather for the Past 2 Weeks in Kilgore, Texas, U.S.A.

Now
49 °F

Overcast.


Feels Like: 46 °F
Forecast: 52 / 71 °F
Wind: 6 mph from East

Location: Gregg County Airport

Current Time: Feb 14, 2016 at 7:39:03 AM

Latest Report: Feb 14, 2016 at 6:53 AM


Visibility: 10 mi

Pressure: 30.06 "Hg

Humidity: 71%

Dew point: 40 °F

Location of KilgoreLocation

Historic Weather in Kilgore — Graph

°F

Kilgore Temperature Yesterday

Maximum temperature yesterday: 60 °F (at 3:53 PM)
Minimum temperature yesterday: 42 °F (at 6:53 AM)
Average temperature yesterday: 51 °F

High & Low Weather Summary for the Past Weeks

 TemperatureHumidityPressure
High77 °F (Jan 31, 1:53 PM)100% (Feb 7, 3:53 AM)30.51 "Hg (Feb 7, 3:53 AM)
Low24 °F (Feb 5, 6:53 AM)16% (Feb 2, 2:53 PM)29.58 "Hg (Feb 1, 11:53 PM)
Average51 °F56%30.13 "Hg
* Reported Jan 30 5:53 AM — Feb 14 5:53 AM, Kilgore, Weather by CustomWeather, © 2016

Note: Actual official high and low records may vary slightly from our data, if they occured in-between our weather recording intervals... More about our weather records

Advertising

Kilgore Weather History for the Previous 24 Hours

 ConditionsComfort  
Time TempWeatherWind HumidityBarometerVisibility
5:53 AM
Sun, Feb 14
50 °FOvercast.5 mph68%30.06 "Hg10 mi
4:53 AM50 °FOvercast.8 mph66%30.06 "Hg10 mi
3:53 AM50 °FMostly cloudy.7 mph63%30.07 "Hg10 mi
2:53 AM50 °FOvercast.8 mph61%30.10 "Hg10 mi
1:53 AM50 °FOvercast.10 mph57%30.12 "Hg10 mi
12:53 AM49 °FOvercast.10 mph55%30.15 "Hg10 mi
11:53 PM
Sat, Feb 13
49 °FMostly cloudy.10 mph55%30.19 "Hg10 mi
10:53 PM50 °FClear.10 mph52%30.20 "Hg10 mi
9:53 PM51 °FClear.10 mph52%30.22 "Hg10 mi
8:53 PM51 °FClear.9 mph56%30.23 "Hg10 mi
7:53 PM51 °FPassing clouds.6 mph59%30.24 "Hg10 mi
6:53 PM54 °FClear.6 mph53%30.25 "Hg10 mi
5:53 PM57 °FPartly sunny.6 mph47%30.25 "Hg10 mi
4:53 PM59 °FPartly sunny.9 mph42%30.26 "Hg10 mi
3:53 PM60 °FPassing clouds.13 mph39%30.28 "Hg10 mi
2:53 PM59 °FSunny.10 mph39%30.30 "Hg10 mi
1:53 PM58 °FSunny.9 mph41%30.34 "Hg10 mi
12:53 PM57 °FSunny.7 mph41%30.38 "Hg10 mi
11:53 AM54 °FSunny.7 mph41%30.42 "Hg10 mi
10:53 AM51 °FSunny.13 mph46%30.45 "Hg10 mi
9:53 AM48 °FSunny.15 mph52%30.46 "Hg10 mi
8:53 AM46 °FSunny.9 mph58%30.45 "Hg10 mi
7:53 AM43 °FSunny.8 mph74%30.44 "Hg10 mi
Weather by CustomWeather, © 2016

See weather overviewHow to use our weather pages